Observation data for Tarzan on 11/16/2019      Previous  Date       Current Mesonet Observations  Soil Data  Daily Summary Page  Observations in Plain Language
KTA1 162100Z 18012KT 20/03 A30 RMK A01 T02000031  RH  033%=      5-min Rain = 0
KTA1 162101Z 19012KT 20/03 A30 RMK A01 T01990031  RH  033%=      5-min Rain = 0
KTA1 162102Z 20008KT 20/03 A30 RMK A01 T01990031  RH  033%=      5-min Rain = 0
KTA1 162103Z 19008KT 20/03 A30 RMK A01 T01990031  RH  033%=      5-min Rain = 0
KTA1 162104Z 17011KT 20/03 A30 RMK A01 T02000031  RH  033%=      5-min Rain = 0
KTA1 162105Z 16012KT 20/03 A30 RMK A01 T01990030  RH  033%=      5-min Rain = 0
KTA1 162106Z 16010KT 20/03 A2999 RMK A01 T01980029  RH  033%=      5-min Rain = 0
KTA1 162107Z 18011G16KT 20/03 A30 RMK A01 T01970030  RH  033%=      5-min Rain = 0
KTA1 162108Z 18009KT 20/03 A2999 RMK A01 T01960029  RH  033%=      5-min Rain = 0
KTA1 162109Z 17007KT 20/03 A2999 RMK A01 T01950029  RH  033%=      5-min Rain = 0
KTA1 162110Z 17008KT 20/03 A2999 RMK A01 T01950029  RH  033%=      5-min Rain = 0
KTA1 162111Z 19009KT 20/03 A2999 RMK A01 T01960029  RH  033%=      5-min Rain = 0
KTA1 162112Z 18012G17KT 20/03 A2999 RMK A01 T01970028  RH  033%=      5-min Rain = 0
KTA1 162113Z 18012KT 20/03 A2999 RMK A01 T01970026  RH  032%=      5-min Rain = 0
KTA1 162114Z 19010KT 20/03 A2999 RMK A01 T01950025  RH  032%=      5-min Rain = 0
KTA1 162115Z 18010KT 19/03 A2999 RMK A01 T01940025  RH  032%=      5-min Rain = 0
KTA1 162116Z 20009KT 19/03 A2999 RMK A01 T01940026  RH  033%=      5-min Rain = 0
KTA1 162117Z 21009KT 20/03 A2999 RMK A01 T01950025  RH  032%=      5-min Rain = 0
KTA1 162118Z 20008KT 20/03 A2999 RMK A01 T01950025  RH  032%=      5-min Rain = 0
KTA1 162119Z 19010KT 20/03 A2999 RMK A01 T01970028  RH  033%=      5-min Rain = 0
KTA1 162120Z 18009KT 20/03 A2999 RMK A01 T01990029  RH  033%=      5-min Rain = 0
KTA1 162121Z 17008KT 20/03 A2999 RMK A01 T02000029  RH  032%=      5-min Rain = 0
KTA1 162122Z 18008KT 20/03 A2999 RMK A01 T02010030  RH  032%=      5-min Rain = 0
KTA1 162123Z 17007KT 20/03 A2999 RMK A01 T02000031  RH  033%=      5-min Rain = 0
KTA1 162124Z 18009KT 20/03 A2999 RMK A01 T02010032  RH  033%=      5-min Rain = 0
KTA1 162125Z 17011KT 20/03 A2999 RMK A01 T02030031  RH  032%=      5-min Rain = 0
KTA1 162126Z 18010KT 20/03 A2999 RMK A01 T02020030  RH  032%=      5-min Rain = 0
KTA1 162127Z 17009KT 20/03 A2999 RMK A01 T02010031  RH  032%=      5-min Rain = 0
KTA1 162128Z 16008KT 20/03 A2999 RMK A01 T02010031  RH  032%=      5-min Rain = 0
KTA1 162129Z 16009KT 20/03 A2999 RMK A01 T02010032  RH  033%=      5-min Rain = 0
KTA1 162130Z 17011KT 20/03 A2999 RMK A01 T02020031  RH  032%=      5-min Rain = 0
KTA1 162131Z 18010KT 20/03 A2999 RMK A01 T02020032  RH  032%=      5-min Rain = 0
KTA1 162132Z 19010KT 20/03 A2999 RMK A01 T02000031  RH  033%=      5-min Rain = 0
KTA1 162133Z 18011KT 20/03 A2999 RMK A01 T01980031  RH  033%=      5-min Rain = 0
KTA1 162134Z 17008KT 20/03 A2999 RMK A01 T01970031  RH  033%=      5-min Rain = 0
KTA1 162135Z 16012KT 20/03 A2999 RMK A01 T01970032  RH  033%=      5-min Rain = 0
KTA1 162136Z 16011KT 20/03 A2999 RMK A01 T01970031  RH  033%=      5-min Rain = 0
KTA1 162137Z 17012KT 20/03 A2999 RMK A01 T01960031  RH  033%=      5-min Rain = 0
KTA1 162138Z 17009KT 19/03 A2999 RMK A01 T01940031  RH  034%=      5-min Rain = 0
KTA1 162139Z 16010KT 20/03 A2999 RMK A01 T01950032  RH  034%=      5-min Rain = 0
KTA1 162140Z 17010KT 20/03 A2999 RMK A01 T01950032  RH  034%=      5-min Rain = 0
KTA1 162141Z 18009KT 20/03 A2999 RMK A01 T01950031  RH  034%=      5-min Rain = 0
KTA1 162142Z 17008KT 19/03 A2999 RMK A01 T01940032  RH  034%=      5-min Rain = 0
KTA1 162143Z 17009KT 19/03 A2999 RMK A01 T01940033  RH  034%=      5-min Rain = 0
KTA1 162144Z 17009KT 19/03 A2999 RMK A01 T01940033  RH  034%=      5-min Rain = 0
KTA1 162145Z 17007KT 19/03 A2999 RMK A01 T01930033  RH  035%=      5-min Rain = 0
KTA1 162146Z 17009KT 19/03 A2999 RMK A01 T01930034  RH  035%=      5-min Rain = 0
KTA1 162147Z 16009KT 19/03 A2999 RMK A01 T01930034  RH  035%=      5-min Rain = 0
KTA1 162148Z 16010KT 19/03 A2999 RMK A01 T01920034  RH  035%=      5-min Rain = 0
KTA1 162149Z 16009KT 19/03 A2999 RMK A01 T01910034  RH  035%=      5-min Rain = 0
KTA1 162150Z 16009KT 19/03 A2999 RMK A01 T01910034  RH  035%=      5-min Rain = 0
KTA1 162151Z 15011KT 19/03 A2999 RMK A01 T01900034  RH  036%=      5-min Rain = 0
KTA1 162152Z 16010KT 19/03 A2999 RMK A01 T01900034  RH  036%=      5-min Rain = 0
KTA1 162153Z 16010KT 19/03 A2999 RMK A01 T01890034  RH  036%=      5-min Rain = 0
KTA1 162154Z 16011KT 19/04 A2999 RMK A01 T01890035  RH  036%=      5-min Rain = 0
KTA1 162155Z 16011KT 19/04 A2999 RMK A01 T01890035  RH  036%=      5-min Rain = 0
KTA1 162156Z 15011KT 19/03 A2999 RMK A01 T01880034  RH  036%=      5-min Rain = 0
KTA1 162157Z 15011KT 19/04 A2999 RMK A01 T01880035  RH  036%=      5-min Rain = 0
KTA1 162158Z 16011KT 19/04 A2999 RMK A01 T01880035  RH  036%=      5-min Rain = 0
KTA1 162159Z 15011KT 19/04 A2999 RMK A01 T01880036  RH  036%=      5-min Rain = 0
KTA1 162200Z 16011KT 19/04 A2999 RMK A01 T01870036  RH  036%=      5-min Rain = 0
KTA1 162201Z 17010KT 19/04 A2999 RMK A01 T01880036  RH  037%=      5-min Rain = 0
KTA1 162202Z 16011KT 19/04 A2999 RMK A01 T01880036  RH  037%=      5-min Rain = 0
KTA1 162203Z 16011KT 19/04 A2999 RMK A01 T01880036  RH  037%=      5-min Rain = 0
KTA1 162204Z 16009KT 19/04 A2999 RMK A01 T01880036  RH  036%=      5-min Rain = 0
KTA1 162205Z 16010KT 19/04 A2999 RMK A01 T01880036  RH  037%=      5-min Rain = 0
KTA1 162206Z 16010KT 19/04 A2999 RMK A01 T01880036  RH  037%=      5-min Rain = 0
KTA1 162207Z 16010KT 19/04 A2999 RMK A01 T01870036  RH  037%=      5-min Rain = 0
KTA1 162208Z 16011KT 19/04 A2999 RMK A01 T01870036  RH  037%=      5-min Rain = 0
KTA1 162209Z 16011KT 19/04 A2999 RMK A01 T01870036  RH  037%=      5-min Rain = 0
KTA1 162210Z 16009KT 19/04 A2999 RMK A01 T01870036  RH  037%=      5-min Rain = 0
KTA1 162211Z 16009KT 19/04 A2999 RMK A01 T01870037  RH  037%=      5-min Rain = 0
KTA1 162212Z 16009KT 19/04 A2999 RMK A01 T01870037  RH  037%=      5-min Rain = 0
KTA1 162213Z 16008KT 19/04 A2999 RMK A01 T01870036  RH  037%=      5-min Rain = 0
KTA1 162214Z 17009KT 19/04 A2999 RMK A01 T01870037  RH  037%=      5-min Rain = 0
KTA1 162215Z 18009KT 19/04 A2999 RMK A01 T01870037  RH  037%=      5-min Rain = 0
KTA1 162216Z 17010KT 19/04 A2999 RMK A01 T01870037  RH  037%=      5-min Rain = 0
KTA1 162217Z 17010KT 19/04 A2999 RMK A01 T01880036  RH  037%=      5-min Rain = 0
KTA1 162218Z 17011KT 19/04 A2999 RMK A01 T01870036  RH  037%=      5-min Rain = 0
KTA1 162219Z 17010KT 19/04 A2999 RMK A01 T01870036  RH  037%=      5-min Rain = 0
KTA1 162220Z 17010KT 19/04 A2999 RMK A01 T01870036  RH  037%=      5-min Rain = 0
KTA1 162221Z 16009KT 19/04 A2999 RMK A01 T01870036  RH  037%=      5-min Rain = 0
KTA1 162222Z 16010KT 19/04 A2999 RMK A01 T01870036  RH  037%=      5-min Rain = 0
KTA1 162223Z 16007KT 19/04 A2999 RMK A01 T01870036  RH  037%=      5-min Rain = 0
KTA1 162224Z 16007KT 19/04 A2999 RMK A01 T01870037  RH  037%=      5-min Rain = 0
KTA1 162225Z 16009KT 19/04 A2999 RMK A01 T01870037  RH  037%=      5-min Rain = 0
KTA1 162226Z 17008KT 19/04 A2999 RMK A01 T01870037  RH  037%=      5-min Rain = 0
KTA1 162227Z 16010KT 19/04 A2999 RMK A01 T01870038  RH  037%=      5-min Rain = 0
KTA1 162228Z 17010KT 19/04 A2999 RMK A01 T01870037  RH  037%=      5-min Rain = 0
KTA1 162229Z 17010KT 19/04 A2999 RMK A01 T01870038  RH  037%=      5-min Rain = 0
KTA1 162230Z 17011KT 19/04 A2999 RMK A01 T01870038  RH  037%=      5-min Rain = 0
KTA1 162231Z 17008KT 19/04 A2999 RMK A01 T01860038  RH  037%=      5-min Rain = 0
KTA1 162232Z 16010KT 19/04 A2999 RMK A01 T01860039  RH  038%=      5-min Rain = 0
KTA1 162233Z 16010KT 19/04 A2999 RMK A01 T01860039  RH  038%=      5-min Rain = 0
KTA1 162234Z 16012KT 19/04 A2999 RMK A01 T01850038  RH  038%=      5-min Rain = 0
KTA1 162235Z 16010KT 19/04 A2999 RMK A01 T01850038  RH  038%=      5-min Rain = 0
KTA1 162236Z 16009KT 18/04 A2999 RMK A01 T01840039  RH  038%=      5-min Rain = 0
KTA1 162237Z 17007KT 18/04 A2999 RMK A01 T01840039  RH  038%=      5-min Rain = 0
KTA1 162238Z 16010KT 18/04 A2999 RMK A01 T01840040  RH  039%=      5-min Rain = 0
KTA1 162239Z 16009KT 18/04 A30 RMK A01 T01830039  RH  039%=      5-min Rain = 0
KTA1 162240Z 16010KT 18/04 A30 RMK A01 T01830040  RH  039%=      5-min Rain = 0
KTA1 162241Z 16010KT 18/04 A30 RMK A01 T01820040  RH  039%=      5-min Rain = 0
KTA1 162242Z 16010KT 18/04 A2999 RMK A01 T01820040  RH  039%=      5-min Rain = 0
KTA1 162243Z 17011KT 18/04 A2999 RMK A01 T01820040  RH  039%=      5-min Rain = 0
KTA1 162244Z 17011KT 18/04 A2999 RMK A01 T01820040  RH  039%=      5-min Rain = 0
KTA1 162245Z 16011KT 18/04 A2999 RMK A01 T01820039  RH  039%=      5-min Rain = 0
KTA1 162246Z 16009KT 18/04 A2999 RMK A01 T01820040  RH  039%=      5-min Rain = 0
KTA1 162247Z 16008KT 18/04 A2999 RMK A01 T01820041  RH  039%=      5-min Rain = 0
KTA1 162248Z 16011KT 18/04 A2999 RMK A01 T01810041  RH  039%=      5-min Rain = 0
KTA1 162249Z 16012KT 18/04 A2999 RMK A01 T01810040  RH  039%=      5-min Rain = 0
KTA1 162250Z 16012KT 18/04 A2999 RMK A01 T01810040  RH  039%=      5-min Rain = 0
KTA1 162251Z 16011KT 18/04 A2999 RMK A01 T01800040  RH  039%=      5-min Rain = 0
KTA1 162252Z 16010KT 18/04 A2999 RMK A01 T01800041  RH  040%=      5-min Rain = 0
KTA1 162253Z 16011KT 18/04 A2999 RMK A01 T01800041  RH  040%=      5-min Rain = 0
KTA1 162254Z 16009KT 18/04 A2999 RMK A01 T01800041  RH  040%=      5-min Rain = 0
KTA1 162255Z 16011KT 18/04 A2999 RMK A01 T01790041  RH  040%=      5-min Rain = 0
KTA1 162256Z 17008KT 18/04 A2999 RMK A01 T01790041  RH  040%=      5-min Rain = 0
KTA1 162257Z 16009KT 18/04 A2999 RMK A01 T01790042  RH  040%=      5-min Rain = 0
KTA1 162258Z 16010KT 18/04 A2999 RMK A01 T01780041  RH  040%=      5-min Rain = 0
KTA1 162259Z 16012KT 18/04 A2999 RMK A01 T01780041  RH  040%=      5-min Rain = 0
KTA1 162300Z 16010KT 18/04 A2999 RMK A01 T01780041  RH  040%=      5-min Rain = 0
KTA1 162301Z 16008KT 18/04 A2999 RMK A01 T01780041  RH  040%=      5-min Rain = 0
KTA1 162302Z 16009KT 18/04 A2999 RMK A01 T01780041  RH  040%=      5-min Rain = 0
KTA1 162303Z 16011KT 18/04 A2999 RMK A01 T01790041  RH  040%=      5-min Rain = 0
KTA1 162304Z 16010KT 18/04 A2999 RMK A01 T01790040  RH  040%=      5-min Rain = 0
KTA1 162305Z 16009KT 18/04 A2999 RMK A01 T01800041  RH  040%=      5-min Rain = 0
KTA1 162306Z 16011KT 18/04 A2999 RMK A01 T01800041  RH  040%=      5-min Rain = 0
KTA1 162307Z 17010KT 18/04 A2999 RMK A01 T01800040  RH  039%=      5-min Rain = 0
KTA1 162308Z 16009KT 18/04 A2999 RMK A01 T01800040  RH  039%=      5-min Rain = 0
KTA1 162309Z 16009G14KT 18/04 A2999 RMK A01 T01810041  RH  039%=      5-min Rain = 0
KTA1 162310Z 17011KT 18/04 A2999 RMK A01 T01810041  RH  039%=      5-min Rain = 0
KTA1 162311Z 16010KT 18/04 A2999 RMK A01 T01810040  RH  039%=      5-min Rain = 0
KTA1 162312Z 17010KT 18/04 A2999 RMK A01 T01810041  RH  040%=      5-min Rain = 0
KTA1 162313Z 16011KT 18/04 A2999 RMK A01 T01810042  RH  040%=      5-min Rain = 0
KTA1 162314Z 16010KT 18/04 A2999 RMK A01 T01810042  RH  040%=      5-min Rain = 0
KTA1 162315Z 16010KT 18/04 A2999 RMK A01 T01810042  RH  040%=      5-min Rain = 0
KTA1 162316Z 17010KT 18/04 A2999 RMK A01 T01800042  RH  040%=      5-min Rain = 0
KTA1 162317Z 16012KT 18/04 A2999 RMK A01 T01800042  RH  040%=      5-min Rain = 0
KTA1 162318Z 16011KT 18/04 A2999 RMK A01 T01790041  RH  040%=      5-min Rain = 0
KTA1 162319Z 16011KT 18/04 A2999 RMK A01 T01790042  RH  040%=      5-min Rain = 0
KTA1 162320Z 16011KT 18/04 A2999 RMK A01 T01780042  RH  040%=      5-min Rain = 0
KTA1 162321Z 16012KT 18/04 A2999 RMK A01 T01780042  RH  040%=      5-min Rain = 0
KTA1 162322Z 16011KT 18/04 A2999 RMK A01 T01770042  RH  041%=      5-min Rain = 0
KTA1 162323Z 16010KT 18/04 A2999 RMK A01 T01760042  RH  041%=      5-min Rain = 0
KTA1 162324Z 16011KT 18/04 A2999 RMK A01 T01760042  RH  041%=      5-min Rain = 0
KTA1 162325Z 16011KT 18/04 A2999 RMK A01 T01750043  RH  041%=      5-min Rain = 0
KTA1 162326Z 16010KT 17/04 A2999 RMK A01 T01740043  RH  042%=      5-min Rain = 0
KTA1 162327Z 16010KT 17/04 A2999 RMK A01 T01740044  RH  042%=      5-min Rain = 0
KTA1 162328Z 16009KT 17/05 A2999 RMK A01 T01730045  RH  043%=      5-min Rain = 0
KTA1 162329Z 16009KT 17/05 A2999 RMK A01 T01720046  RH  043%=      5-min Rain = 0
KTA1 162330Z 16008KT 17/05 A2999 RMK A01 T01710046  RH  043%=      5-min Rain = 0
KTA1 162331Z 16008KT 17/05 A2999 RMK A01 T01700046  RH  044%=      5-min Rain = 0
KTA1 162332Z 16009KT 17/05 A2999 RMK A01 T01700046  RH  044%=      5-min Rain = 0
KTA1 162333Z 16007KT 17/05 A2999 RMK A01 T01690047  RH  044%=      5-min Rain = 0
KTA1 162334Z 16009KT 17/05 A2999 RMK A01 T01680047  RH  045%=      5-min Rain = 0
KTA1 162335Z 16012KT 17/05 A2999 RMK A01 T01670047  RH  045%=      5-min Rain = 0
KTA1 162336Z 17011KT 17/05 A2999 RMK A01 T01670047  RH  045%=      5-min Rain = 0
KTA1 162337Z 16011KT 17/05 A2999 RMK A01 T01670047  RH  045%=      5-min Rain = 0
KTA1 162338Z 16011KT 17/05 A2999 RMK A01 T01660047  RH  045%=      5-min Rain = 0
KTA1 162339Z 16010KT 17/05 A2999 RMK A01 T01650047  RH  046%=      5-min Rain = 0
KTA1 162340Z 16011KT 16/05 A2999 RMK A01 T01640047  RH  046%=      5-min Rain = 0
KTA1 162341Z 16010KT 16/05 A2999 RMK A01 T01630047  RH  046%=      5-min Rain = 0
KTA1 162342Z 16010KT 16/05 A2999 RMK A01 T01620047  RH  046%=      5-min Rain = 0
KTA1 162343Z 16010KT 16/05 A2999 RMK A01 T01620048  RH  047%=      5-min Rain = 0
KTA1 162344Z 16008KT 16/05 A2999 RMK A01 T01610048  RH  047%=      5-min Rain = 0
KTA1 162345Z 16010KT 16/05 A2999 RMK A01 T01600048  RH  047%=      5-min Rain = 0
KTA1 162346Z 16009KT 16/05 A2999 RMK A01 T01590048  RH  048%=      5-min Rain = 0
KTA1 162347Z 17010KT 16/05 A30 RMK A01 T01580049  RH  048%=      5-min Rain = 0
KTA1 162348Z 16009KT 16/05 A30 RMK A01 T01580049  RH  048%=      5-min Rain = 0
KTA1 162349Z 16010KT 16/05 A30 RMK A01 T01570049  RH  048%=      5-min Rain = 0
KTA1 162350Z 17011KT 16/05 A30 RMK A01 T01560049  RH  049%=      5-min Rain = 0
KTA1 162351Z 17010KT 16/05 A30 RMK A01 T01560049  RH  049%=      5-min Rain = 0
KTA1 162352Z 16009KT 16/05 A30 RMK A01 T01550049  RH  049%=      5-min Rain = 0
KTA1 162353Z 16009KT 16/05 A30 RMK A01 T01550049  RH  049%=      5-min Rain = 0
KTA1 162354Z 16009KT 16/05 A30 RMK A01 T01550049  RH  049%=      5-min Rain = 0
KTA1 162355Z 16009KT 15/05 A30 RMK A01 T01540049  RH  050%=      5-min Rain = 0
KTA1 162356Z 16009KT 15/05 A30 RMK A01 T01530049  RH  050%=      5-min Rain = 0
KTA1 162357Z 16010KT 15/05 A30 RMK A01 T01520049  RH  050%=      5-min Rain = 0
KTA1 162358Z 16009KT 15/05 A30 RMK A01 T01520049  RH  050%=      5-min Rain = 0
KTA1 162359Z 16009KT 15/05 A30 RMK A01 T01520049  RH  050%=      5-min Rain = 0
KTA1 170000Z 16009KT 15/05 A30 RMK A01 T01510049  RH  050%=      5-min Rain = 0
KTA1 170001Z 16008KT 15/05 A30 RMK A01 T01500049  RH  051%=      5-min Rain = 0
KTA1 170002Z 16009KT 15/05 A30 RMK A01 T01490049  RH  051%=      5-min Rain = 0
KTA1 170003Z 16008KT 15/05 A30 RMK A01 T01490049  RH  051%=      5-min Rain = 0
KTA1 170004Z 16008KT 15/05 A30 RMK A01 T01480049  RH  051%=      5-min Rain = 0
KTA1 170005Z 16008KT 15/05 A30 RMK A01 T01470049  RH  052%=      5-min Rain = 0
KTA1 170006Z 16009KT 15/05 A30 RMK A01 T01460049  RH  052%=      5-min Rain = 0
KTA1 170007Z 16009KT 15/05 A30 RMK A01 T01460049  RH  052%=      5-min Rain = 0
KTA1 170008Z 16009KT 15/05 A30 RMK A01 T01460049  RH  052%=      5-min Rain = 0
KTA1 170009Z 16009KT 15/05 A2999 RMK A01 T01460049  RH  052%=      5-min Rain = 0
KTA1 170010Z 16009KT 15/05 A2999 RMK A01 T01450049  RH  052%=      5-min Rain = 0
KTA1 170011Z 16009KT 15/05 A2999 RMK A01 T01450049  RH  053%=      5-min Rain = 0
KTA1 170012Z 16008KT 14/05 A2999 RMK A01 T01440049  RH  053%=      5-min Rain = 0
KTA1 170013Z 16009KT 14/05 A2999 RMK A01 T01430049  RH  053%=      5-min Rain = 0
KTA1 170014Z 16008KT 14/05 A2999 RMK A01 T01430049  RH  053%=      5-min Rain = 0
KTA1 170015Z 16009KT 14/05 A30 RMK A01 T01430049  RH  053%=      5-min Rain = 0
KTA1 170016Z 15009KT 14/05 A30 RMK A01 T01420049  RH  053%=      5-min Rain = 0
KTA1 170017Z 16009KT 14/05 A30 RMK A01 T01410049  RH  054%=      5-min Rain = 0
KTA1 170018Z 16009KT 14/05 A30 RMK A01 T01410049  RH  054%=      5-min Rain = 0
KTA1 170019Z 15008KT 14/05 A30 RMK A01 T01400049  RH  054%=      5-min Rain = 0
KTA1 170020Z 15008KT 14/05 A30 RMK A01 T01400049  RH  054%=      5-min Rain = 0
KTA1 170021Z 16008KT 14/05 A30 RMK A01 T01390049  RH  054%=      5-min Rain = 0
KTA1 170022Z 16008KT 14/05 A30 RMK A01 T01390049  RH  055%=      5-min Rain = 0
KTA1 170023Z 16008KT 14/05 A30 RMK A01 T01380049  RH  055%=      5-min Rain = 0
KTA1 170024Z 16008KT 14/05 A30 RMK A01 T01380049  RH  055%=      5-min Rain = 0
KTA1 170025Z 16009KT 14/05 A30 RMK A01 T01380049  RH  055%=      5-min Rain = 0
KTA1 170026Z 16009KT 14/05 A30 RMK A01 T01370049  RH  055%=      5-min Rain = 0
KTA1 170027Z 16008KT 14/05 A30 RMK A01 T01370049  RH  055%=      5-min Rain = 0
KTA1 170028Z 15009KT 14/05 A30 RMK A01 T01370049  RH  055%=      5-min Rain = 0
KTA1 170029Z 16008KT 14/05 A30 RMK A01 T01370049  RH  055%=      5-min Rain = 0
KTA1 170030Z 16009KT 14/05 A30 RMK A01 T01370049  RH  055%=      5-min Rain = 0
KTA1 170031Z 15008KT 14/05 A30 RMK A01 T01370049  RH  055%=      5-min Rain = 0
KTA1 170032Z 16008KT 14/05 A30 RMK A01 T01370049  RH  055%=      5-min Rain = 0
KTA1 170033Z 16008KT 14/05 A30 RMK A01 T01370049  RH  055%=      5-min Rain = 0
KTA1 170034Z 15008KT 14/05 A30 RMK A01 T01370049  RH  055%=      5-min Rain = 0
KTA1 170035Z 15008KT 14/05 A30 RMK A01 T01370049  RH  055%=      5-min Rain = 0
KTA1 170036Z 15007KT 14/05 A30 RMK A01 T01370049  RH  055%=      5-min Rain = 0
KTA1 170037Z 15007KT 14/05 A30 RMK A01 T01360049  RH  056%=      5-min Rain = 0
KTA1 170038Z 15007KT 14/05 A30 RMK A01 T01350049  RH  056%=      5-min Rain = 0
KTA1 170039Z 15008KT 14/05 A30 RMK A01 T01350049  RH  056%=      5-min Rain = 0
KTA1 170040Z 15007KT 13/05 A30 RMK A01 T01340049  RH  056%=      5-min Rain = 0
KTA1 170041Z 15007KT 13/05 A30 RMK A01 T01340049  RH  056%=      5-min Rain = 0
KTA1 170042Z 15008KT 13/05 A30 RMK A01 T01330049  RH  057%=      5-min Rain = 0
KTA1 170043Z 15007KT 13/05 A30 RMK A01 T01320049  RH  057%=      5-min Rain = 0
KTA1 170044Z 15007KT 13/05 A30 RMK A01 T01310049  RH  057%=      5-min Rain = 0
KTA1 170045Z 16008KT 13/05 A30 RMK A01 T01310049  RH  057%=      5-min Rain = 0
KTA1 170046Z 15007KT 13/05 A30 RMK A01 T01310049  RH  058%=      5-min Rain = 0
KTA1 170047Z 15007KT 13/05 A30 RMK A01 T01300049  RH  058%=      5-min Rain = 0
KTA1 170048Z 15008KT 13/05 A30 RMK A01 T01300049  RH  058%=      5-min Rain = 0
KTA1 170049Z 15007KT 13/05 A30 RMK A01 T01300049  RH  058%=      5-min Rain = 0
KTA1 170050Z 15008KT 13/05 A30 RMK A01 T01290049  RH  058%=      5-min Rain = 0
KTA1 170051Z 15007KT 13/05 A30 RMK A01 T01290049  RH  058%=      5-min Rain = 0
KTA1 170052Z 16008KT 13/05 A30 RMK A01 T01280049  RH  059%=      5-min Rain = 0
KTA1 170053Z 16008KT 13/05 A30 RMK A01 T01280049  RH  059%=      5-min Rain = 0
KTA1 170054Z 16008KT 13/05 A30 RMK A01 T01280049  RH  058%=      5-min Rain = 0
KTA1 170055Z 16009KT 13/05 A30 RMK A01 T01280049  RH  058%=      5-min Rain = 0
KTA1 170056Z 16008KT 13/05 A30 RMK A01 T01280049  RH  058%=      5-min Rain = 0
KTA1 170057Z 16010KT 13/05 A30 RMK A01 T01270048  RH  059%=      5-min Rain = 0
KTA1 170058Z 16009KT 13/05 A30 RMK A01 T01270048  RH  059%=      5-min Rain = 0
KTA1 170059Z 16010KT 13/05 A30 RMK A01 T01280048  RH  059%=      5-min Rain = 0
KTA1 170100Z 16009KT 13/05 A30 RMK A01 T01280049  RH  059%=      5-min Rain = 0
KTA1 170101Z 16009KT 13/05 A30 RMK A01 T01270048  RH  059%=      5-min Rain = 0
KTA1 170102Z 16009KT 13/05 A30 RMK A01 T01270048  RH  059%=      5-min Rain = 0
KTA1 170103Z 16009KT 13/05 A30 RMK A01 T01280049  RH  059%=      5-min Rain = 0
KTA1 170104Z 16009KT 13/05 A30 RMK A01 T01280049  RH  059%=      5-min Rain = 0
KTA1 170105Z 16009KT 13/05 A30 RMK A01 T01280049  RH  059%=      5-min Rain = 0
KTA1 170106Z 16008KT 13/05 A30 RMK A01 T01270048  RH  059%=      5-min Rain = 0
KTA1 170107Z 16008KT 13/05 A30 RMK A01 T01270049  RH  059%=      5-min Rain = 0
KTA1 170108Z 16008KT 13/05 A30 RMK A01 T01260048  RH  059%=      5-min Rain = 0
KTA1 170109Z 16008KT 13/05 A30 RMK A01 T01260049  RH  059%=      5-min Rain = 0
KTA1 170110Z 16008KT 13/05 A30 RMK A01 T01260049  RH  059%=      5-min Rain = 0
KTA1 170111Z 16009KT 13/05 A30 RMK A01 T01250049  RH  059%=      5-min Rain = 0
KTA1 170112Z 16009KT 13/05 A30 RMK A01 T01250048  RH  059%=      5-min Rain = 0
KTA1 170113Z 16008KT 13/05 A30 RMK A01 T01260048  RH  059%=      5-min Rain = 0
KTA1 170114Z 16009KT 13/05 A30 RMK A01 T01270049  RH  059%=      5-min Rain = 0
KTA1 170115Z 16009KT 13/05 A30 RMK A01 T01270049  RH  059%=      5-min Rain = 0
KTA1 170116Z 16009KT 13/05 A30 RMK A01 T01270049  RH  059%=      5-min Rain = 0
KTA1 170117Z 16009KT 13/05 A30 RMK A01 T01270049  RH  059%=      5-min Rain = 0
KTA1 170118Z 16009KT 13/05 A30 RMK A01 T01270048  RH  059%=      5-min Rain = 0
KTA1 170119Z 16009KT 13/05 A30 RMK A01 T01270049  RH  059%=      5-min Rain = 0
KTA1 170120Z 16009KT 13/05 A30 RMK A01 T01260049  RH  059%=      5-min Rain = 0
KTA1 170121Z 16008KT 13/05 A30 RMK A01 T01250049  RH  059%=      5-min Rain = 0
KTA1 170122Z 16008KT 13/05 A30 RMK A01 T01250048  RH  060%=      5-min Rain = 0
KTA1 170123Z 16009KT 12/05 A30 RMK A01 T01240049  RH  060%=      5-min Rain = 0
KTA1 170124Z 16009KT 12/05 A30 RMK A01 T01240048  RH  060%=      5-min Rain = 0
KTA1 170125Z 16010KT 12/05 A30 RMK A01 T01240049  RH  060%=      5-min Rain = 0
KTA1 170126Z 16009KT 12/05 A30 RMK A01 T01240048  RH  060%=      5-min Rain = 0
KTA1 170127Z 16009KT 12/05 A30 RMK A01 T01240048  RH  060%=      5-min Rain = 0
KTA1 170128Z 16009KT 12/05 A30 RMK A01 T01240049  RH  060%=      5-min Rain = 0
KTA1 170129Z 17008KT 12/05 A30 RMK A01 T01240049  RH  060%=      5-min Rain = 0
KTA1 170130Z 17008KT 12/05 A30 RMK A01 T01230049  RH  060%=      5-min Rain = 0
KTA1 170131Z 17007KT 12/05 A3001 RMK A01 T01240049  RH  060%=      5-min Rain = 0
KTA1 170132Z 17007KT 12/05 A3001 RMK A01 T01240049  RH  060%=      5-min Rain = 0
KTA1 170133Z 17006KT 12/05 A3001 RMK A01 T01240049  RH  060%=      5-min Rain = 0
KTA1 170134Z 17007KT 13/05 A3001 RMK A01 T01250049  RH  060%=      5-min Rain = 0
KTA1 170135Z 17008KT 13/05 A3001 RMK A01 T01250050  RH  060%=      5-min Rain = 0
KTA1 170136Z 17007KT 13/05 A3001 RMK A01 T01260049  RH  060%=      5-min Rain = 0
KTA1 170137Z 18007KT 13/05 A3001 RMK A01 T01260049  RH  060%=      5-min Rain = 0
KTA1 170138Z 17009KT 13/05 A3001 RMK A01 T01260049  RH  059%=      5-min Rain = 0
KTA1 170139Z 17008KT 13/05 A3001 RMK A01 T01270050  RH  059%=      5-min Rain = 0
KTA1 170140Z 17007KT 13/05 A3001 RMK A01 T01270050  RH  059%=      5-min Rain = 0
KTA1 170141Z 17008KT 13/05 A3001 RMK A01 T01270050  RH  059%=      5-min Rain = 0
KTA1 170142Z 17007KT 13/05 A3001 RMK A01 T01270050  RH  059%=      5-min Rain = 0
KTA1 170143Z 17008KT 13/05 A3001 RMK A01 T01260049  RH  059%=      5-min Rain = 0
KTA1 170144Z 17008KT 13/05 A3001 RMK A01 T01250049  RH  060%=      5-min Rain = 0
KTA1 170145Z 17008KT 12/05 A3001 RMK A01 T01240049  RH  060%=      5-min Rain = 0
KTA1 170146Z 17008KT 12/05 A3001 RMK A01 T01240049  RH  060%=      5-min Rain = 0
KTA1 170147Z 17009KT 12/05 A3001 RMK A01 T01230049  RH  061%=      5-min Rain = 0
KTA1 170148Z 17009KT 12/05 A3001 RMK A01 T01240049  RH  060%=      5-min Rain = 0
KTA1 170149Z 17008KT 12/05 A3001 RMK A01 T01240049  RH  060%=      5-min Rain = 0
KTA1 170150Z 17008KT 12/05 A3001 RMK A01 T01240049  RH  060%=      5-min Rain = 0
KTA1 170151Z 17007KT 12/05 A3001 RMK A01 T01230049  RH  061%=      5-min Rain = 0
KTA1 170152Z 17008KT 12/05 A3001 RMK A01 T01210049  RH  061%=      5-min Rain = 0
KTA1 170153Z 17008KT 12/05 A3001 RMK A01 T01200049  RH  062%=      5-min Rain = 0
KTA1 170154Z 16009KT 12/05 A30 RMK A01 T01200049  RH  062%=      5-min Rain = 0
KTA1 170155Z 17008KT 12/05 A30 RMK A01 T01190048  RH  062%=      5-min Rain = 0
KTA1 170156Z 16008KT 12/05 A30 RMK A01 T01180049  RH  062%=      5-min Rain = 0
KTA1 170157Z 17008KT 12/05 A30 RMK A01 T01170049  RH  063%=      5-min Rain = 0
KTA1 170158Z 16008KT 12/05 A30 RMK A01 T01170049  RH  063%=      5-min Rain = 0
KTA1 170159Z 16009KT 12/05 A30 RMK A01 T01160049  RH  063%=      5-min Rain = 0
KTA1 170200Z 16009KT 12/05 A30 RMK A01 T01170049  RH  063%=      5-min Rain = 0
KTA1 170201Z 16009KT 12/05 A30 RMK A01 T01160048  RH  063%=      5-min Rain = 0
KTA1 170202Z 17009KT 12/05 A30 RMK A01 T01150048  RH  063%=      5-min Rain = 0
KTA1 170203Z 17009KT 12/05 A30 RMK A01 T01150049  RH  064%=      5-min Rain = 0
KTA1 170204Z 16009KT 12/05 A30 RMK A01 T01150049  RH  064%=      5-min Rain = 0
KTA1 170205Z 17009KT 12/05 A30 RMK A01 T01160049  RH  064%=      5-min Rain = 0
KTA1 170206Z 17009KT 12/05 A30 RMK A01 T01160049  RH  063%=      5-min Rain = 0
KTA1 170207Z 17008KT 12/05 A30 RMK A01 T01160049  RH  063%=      5-min Rain = 0
KTA1 170208Z 17009KT 12/05 A30 RMK A01 T01170049  RH  063%=      5-min Rain = 0
KTA1 170209Z 17010KT 12/05 A30 RMK A01 T01170049  RH  063%=      5-min Rain = 0
KTA1 170210Z 17009KT 12/05 A30 RMK A01 T01170050  RH  063%=      5-min Rain = 0
KTA1 170211Z 17009KT 12/05 A30 RMK A01 T01170050  RH  063%=      5-min Rain = 0
KTA1 170238Z 17010KT 12/05 ANAN RMK A01 T01180050  RH  063%=      5-min Rain = 0

Page generated in 0.0108 seconds.